User: anonymous   Login
Location: ?????????
(38.5999°N, 22.7695°E)
Time: 13:07:58
(UTC+00:00)
Language:

Cosmos 2074 Rocket - Orbit

View from above orbital plane
View from above orbital plane
View from above satellite
View from above satellite

Ground track
Ground track

The orbit data is extracted from the following two-line orbital elements,

1 20578U 90036B   24206.20342318  .00000210  00000-0  19914-3 0  9997
2 20578  82.9409 233.9850 0011441 284.7510 148.2552 13.76513606720806
Epoch (UTC): 24 July 2024 04:52:55
Eccentricity: 0.0011441
inclination: 82.9409°
perigee height: 968 km
apogee height: 984 km
right ascension of ascending node: 233.9850°
argument of perigee: 284.7510°
revolutions per day: 13.76513606
mean anomaly at epoch: 148.2552°
orbit number at epoch: 72080

The dashed part of the orbit path shows where the satellite is in the earth's shadow,  

DLR